Weather History for New Ulm, MN

Change the Weather History Date:

Sunday, October 13, 2013

  Actual Average Record
Temperature  
Mean Temperature 45 °F -  
Max Temperature 60 °F 62 °F 88 °F (1975)
Min Temperature 30 °F 40 °F 25 °F (1965)
Degree Days  
Heating Degree Days 20    
Moisture  
Dew Point 33 °F    
Average Humidity 66    
Maximum Humidity 100    
Minimum Humidity 34    
Precipitation  
Precipitation 0.00 in - - ()
Sea Level Pressure  
Sea Level Pressure 30.36 in    
Wind  
Wind Speed 5 mph (WNW)    
Max Wind Speed 8 mph    
Max Gust Speed -    
Visibility 10 miles    
Events      
Averages and records for this station are not official NWS values.
T = Trace of Precipitation, MM = Missing Value Source: NWS Daily Summary

Daily Weather History Graph

Daily Weather History Graph

Search for Another Location

Airport:

Trip Planner

Search our weather history database for the weather conditions in past years. The results will help you decide how hot, cold, wet, or windy it might be!

Date:

Astronomy

Oct. 13, 2013 Rise Set
Actual Time 7:30 AM CDT 6:36 PM CDT
Civil Twilight 7:01 AM CDT 7:05 PM CDT
Nautical Twilight 6:27 AM CDT 7:39 PM CDT
Astronomical Twilight 5:54 AM CDT 8:13 PM CDT
Moon 3:39 PM CDT (10/13) 1:29 AM CDT (10/13)
Length of Visible Light 12h 04m
Length of Day
11h 06m
Waxing Gibbous, 69% of the Moon is Illuminated
Oct 13
Waxing Gibbous
Oct 18
Full
Oct 26
Last Quarter
Nov 3
New
Nov 9
First Quarter

Hourly Weather History & Observations

Time (CDT) Temp. Windchill Dew Point Humidity Pressure Visibility Wind Dir Wind Speed Gust Speed Precip Events Conditions
12:13 AM 39.2 °F 35.0 °F 33.8 °F 81% 30.23 in 10.0 mi West 5.8 mph - N/A   Clear
12:32 AM 39.2 °F 34.2 °F 33.8 °F 81% 30.24 in 10.0 mi West 6.9 mph - N/A   Clear
12:53 AM 37.4 °F 32.8 °F 33.8 °F 87% 30.25 in 10.0 mi West 5.8 mph - N/A   Clear
1:13 AM 35.6 °F 30.7 °F 32.0 °F 87% 30.26 in 10.0 mi West 5.8 mph - N/A   Clear
1:32 AM 35.6 °F 30.7 °F 32.0 °F 87% 30.26 in 10.0 mi West 5.8 mph - N/A   Clear
1:53 AM 35.6 °F 30.7 °F 30.2 °F 81% 30.27 in 10.0 mi West 5.8 mph - N/A   Clear
2:13 AM 35.6 °F 30.7 °F 30.2 °F 81% 30.28 in 10.0 mi West 5.8 mph - N/A   Clear
2:32 AM 33.8 °F 29.6 °F 30.2 °F 87% 30.28 in 10.0 mi West 4.6 mph - N/A   Clear
2:53 AM 33.8 °F 28.6 °F 30.2 °F 87% 30.28 in 10.0 mi WNW 5.8 mph - N/A   Clear
3:13 AM 32.0 °F 26.4 °F 30.2 °F 93% 30.29 in 10.0 mi West 5.8 mph - N/A   Clear
3:32 AM 33.8 °F 27.0 °F 30.2 °F 87% 30.30 in 10.0 mi West 8.1 mph - N/A   Clear
3:53 AM 33.8 °F 27.7 °F 30.2 °F 87% 30.30 in 10.0 mi West 6.9 mph - N/A   Clear
4:13 AM 33.8 °F 27.7 °F 30.2 °F 87% 30.30 in 10.0 mi West 6.9 mph - N/A   Clear
4:32 AM 33.8 °F 27.7 °F 30.2 °F 87% 30.32 in 10.0 mi West 6.9 mph - N/A   Clear
4:53 AM 32.0 °F 25.6 °F 30.2 °F 93% 30.32 in 10.0 mi West 6.9 mph - N/A   Clear
5:13 AM 30.2 °F 23.4 °F 30.2 °F 100% 30.33 in 10.0 mi West 6.9 mph - N/A   Clear
5:32 AM 32.0 °F 26.4 °F 30.2 °F 93% 30.33 in 10.0 mi West 5.8 mph - N/A   Clear
5:53 AM 30.2 °F 25.4 °F 28.4 °F 93% 30.34 in 10.0 mi West 4.6 mph - N/A   Clear
6:13 AM 30.2 °F 26.7 °F 28.4 °F 93% 30.34 in 10.0 mi West 3.5 mph - N/A   Clear
6:32 AM 30.2 °F 25.4 °F 28.4 °F 93% 30.35 in 10.0 mi West 4.6 mph - N/A   Clear
6:53 AM 32.0 °F 28.7 °F 30.2 °F 93% 30.35 in 10.0 mi West 3.5 mph - N/A   Clear
7:13 AM 32.0 °F 28.7 °F 30.2 °F 93% 30.36 in 10.0 mi West 3.5 mph - N/A   Clear
7:32 AM 30.2 °F 24.3 °F 28.4 °F 93% 30.37 in 10.0 mi West 5.8 mph - N/A   Clear
7:53 AM 30.2 °F 25.4 °F 28.4 °F 93% 30.37 in 10.0 mi West 4.6 mph - N/A   Clear
8:13 AM 32.0 °F 28.7 °F 30.2 °F 93% 30.38 in 10.0 mi West 3.5 mph - N/A   Clear
8:32 AM 33.8 °F - 32.0 °F 93% 30.39 in 10.0 mi Calm Calm - N/A   Clear
8:53 AM 37.4 °F 33.8 °F 33.8 °F 87% 30.40 in 10.0 mi WNW 4.6 mph - N/A   Clear
9:13 AM 39.2 °F 37.0 °F 35.6 °F 87% 30.41 in 10.0 mi WNW 3.5 mph - N/A   Clear
9:32 AM 42.8 °F 41.1 °F 35.6 °F 76% 30.41 in 10.0 mi WNW 3.5 mph - N/A   Clear
9:53 AM 44.6 °F - 37.4 °F 76% 30.42 in 10.0 mi Calm Calm - N/A   Clear
10:13 AM 46.4 °F - 37.4 °F 71% 30.42 in 10.0 mi Calm Calm - N/A   Clear
10:32 AM 48.2 °F - 37.4 °F 66% 30.43 in 10.0 mi Calm Calm - N/A   Clear
10:53 AM 50.0 °F - 37.4 °F 62% 30.44 in 10.0 mi NW 3.5 mph - N/A   Clear
11:13 AM 51.8 °F - 37.4 °F 58% 30.43 in 10.0 mi WNW 3.5 mph - N/A   Clear
11:32 AM 53.6 °F - 35.6 °F 51% 30.43 in 10.0 mi NNW 3.5 mph - N/A   Clear
11:53 AM 53.6 °F - 35.6 °F 51% 30.43 in 10.0 mi WNW 3.5 mph - N/A   Clear
12:12 PM 55.4 °F - 33.8 °F 44% 30.43 in 10.0 mi WNW 4.6 mph - N/A   Clear
12:33 PM 55.4 °F - 33.8 °F 44% 30.42 in 10.0 mi NW 4.6 mph - N/A   Clear
12:53 PM 57.2 °F - 35.6 °F 44% 30.41 in 10.0 mi NW 3.5 mph - N/A   Clear
1:13 PM 57.2 °F - 33.8 °F 41% 30.40 in 10.0 mi ENE 4.6 mph - N/A   Clear
1:32 PM 57.2 °F - 33.8 °F 41% 30.40 in 10.0 mi North 3.5 mph - N/A   Clear
1:53 PM 57.2 °F - 33.8 °F 41% 30.39 in 10.0 mi North 5.8 mph - N/A   Clear
2:13 PM 59.0 °F - 33.8 °F 39% 30.39 in 10.0 mi NNW 5.8 mph - N/A   Clear
2:32 PM 59.0 °F - 33.8 °F 39% 30.38 in 10.0 mi North 4.6 mph - N/A   Clear
2:53 PM 60.8 °F - 33.8 °F 36% 30.38 in 10.0 mi NW 5.8 mph - N/A   Clear
3:13 PM 59.0 °F - 33.8 °F 39% 30.37 in 10.0 mi Calm Calm - N/A   Clear
3:32 PM 59.0 °F - 33.8 °F 39% 30.37 in 10.0 mi WNW 5.8 mph - N/A   Clear
3:53 PM 59.0 °F - 33.8 °F 39% 30.37 in 10.0 mi SE 3.5 mph - N/A   Clear
4:13 PM 60.8 °F - 33.8 °F 36% 30.37 in 10.0 mi North 4.6 mph - N/A   Clear
4:32 PM 59.0 °F - 33.8 °F 39% 30.37 in 10.0 mi WNW 3.5 mph - N/A   Clear
4:53 PM 59.0 °F - 30.2 °F 34% 30.36 in 10.0 mi Calm Calm - N/A   Clear
5:13 PM 59.0 °F - 32.0 °F 36% 30.36 in 10.0 mi Calm Calm - N/A   Clear
5:32 PM 59.0 °F - 30.2 °F 34% 30.37 in 10.0 mi Calm Calm - N/A   Clear
5:53 PM 57.2 °F - 32.0 °F 38% 30.37 in 10.0 mi Calm Calm - N/A   Clear
6:13 PM 57.2 °F - 32.0 °F 38% 30.37 in 10.0 mi Calm Calm - N/A   Clear
6:33 PM 55.4 °F - 32.0 °F 41% 30.37 in 10.0 mi Calm Calm - N/A   Clear
6:52 PM 55.4 °F - 30.2 °F 38% 30.37 in 10.0 mi Calm Calm - N/A   Clear
7:13 PM 53.6 °F - 32.0 °F 44% 30.37 in 10.0 mi Calm Calm - N/A   Clear
7:32 PM 55.4 °F - 33.8 °F 44% 30.37 in 10.0 mi Calm Calm - N/A   Clear
7:53 PM 53.6 °F - 33.8 °F 47% 30.37 in 10.0 mi East 4.6 mph - N/A   Clear
8:13 PM 53.6 °F - 35.6 °F 51% 30.36 in 10.0 mi East 3.5 mph - N/A   Clear
8:32 PM 53.6 °F - 33.8 °F 47% 30.36 in 10.0 mi East 4.6 mph - N/A   Clear
8:53 PM 51.8 °F - 33.8 °F 50% 30.36 in 10.0 mi East 4.6 mph - N/A   Clear
9:13 PM 48.2 °F - 33.8 °F 58% 30.36 in 10.0 mi East 3.5 mph - N/A   Clear
9:32 PM 50.0 °F - 35.6 °F 58% 30.36 in 10.0 mi East 4.6 mph - N/A   Clear
9:53 PM 44.6 °F - 35.6 °F 71% 30.36 in 10.0 mi Calm Calm - N/A   Clear
10:13 PM 44.6 °F 41.4 °F 35.6 °F 71% 30.37 in 10.0 mi SE 5.8 mph - N/A   Clear
10:32 PM 44.6 °F 43.1 °F 33.8 °F 66% 30.37 in 10.0 mi SE 3.5 mph - N/A   Clear
10:53 PM 46.4 °F 45.2 °F 33.8 °F 62% 30.37 in 10.0 mi SE 3.5 mph - N/A   Clear
11:13 PM 42.8 °F 39.3 °F 35.6 °F 76% 30.37 in 10.0 mi SE 5.8 mph - N/A   Clear
11:32 PM 44.6 °F 43.1 °F 35.6 °F 71% 30.37 in 10.0 mi SSE 3.5 mph - N/A   Clear
11:53 PM 42.8 °F 39.3 °F 35.6 °F 76% 30.37 in 10.0 mi SE 5.8 mph - N/A   Clear